User: anonymous   Login
Location: *
(37.5724°S, 58.0067°E)
Time: 10:27:22
(UTC+00:00)
Language:

Genesis I - Orbit

View from above orbital plane
View from above orbital plane
View from above satellite
View from above satellite

Ground track
Ground track

The orbit data is extracted from the following two-line orbital elements,

1 29252U 06029A   20336.85254520  .00001553  00000-0  84899-4 0  9998
2 29252  64.5217 113.9949 0019156   1.4504 358.6672 15.18341577793513
Epoch (UTC): 01 December 2020 20:27:39
Eccentricity: 0.0019156
inclination: 64.5217°
perigee height: 497 km
apogee height: 524 km
right ascension of ascending node: 113.9949°
argument of perigee: 1.4504°
revolutions per day: 15.18341577
mean anomaly at epoch: 358.6672°
orbit number at epoch: 79351

The dashed part of the orbit path shows where the satellite is in the earth's shadow,  

DLR